Date,TemperatureHighF,TemperatureAvgF,TemperatureLowF,DewpointHighF,DewpointAvgF,DewpointLowF,HumidityHigh,HumidityAvg,HumidityLow,PressureMaxIn,PressureMinIn,WindSpeedMaxMPH,WindSpeedAvgMPH,GustSpeedMaxMPH,PrecipitationSumIn
2013-4-1,71,55,38,52,43,38,100,69,42,30.13,29.95,12,3,12,0.00
2013-4-2,53,43,37,40,35,28,100,75,50,30.22,30.10,14,5,14,0.55
2013-4-3,54,44,38,40,30,24,92,59,38,30.22,30.13,19,4,19,0.04
2013-4-4,46,44,40,42,37,30,93,78,60,30.16,30.04,8,2,9,0.12
2013-4-5,68,49,30,46,38,30,100,72,34,30.19,30.01,9,2,9,0.00
2013-4-6,75,60,45,50,43,36,84,56,38,30.01,29.80,19,4,19,0.00
2013-4-7,72,63,52,55,51,47,90,67,54,29.95,29.83,15,3,15,0.00
2013-4-8,75,66,61,59,55,52,84,67,51,29.86,29.75,15,4,15,0.00
2013-4-9,81,71,63,62,57,53,76,62,43,29.86,29.75,17,5,19,0.00
2013-4-10,74,58,41,62,51,38,100,79,64,29.86,29.69,29,6,29,0.39
2013-4-11,56,45,37,40,33,28,93,66,45,29.83,29.72,20,8,20,0.00
2013-4-12,65,47,31,41,36,31,100,69,40,30.01,29.80,20,3,20,0.00
2013-4-13,69,54,39,45,40,36,95,63,42,30.07,29.80,11,3,11,0.00
2013-4-14,78,63,47,52,48,44,99,62,40,29.83,29.57,15,4,15,0.00
2013-4-15,76,66,58,59,57,52,92,72,53,29.80,29.69,15,5,15,0.00
2013-4-16,85,73,61,64,61,57,95,68,43,29.92,29.78,14,3,14,0.00
2013-4-17,82,75,69,66,62,58,88,67,50,29.95,29.69,15,4,15,0.00
2013-4-18,76,56,42,66,47,27,100,72,54,29.95,29.60,22,8,27,0.91
2013-4-19,57,45,35,33,28,22,84,53,37,30.10,29.95,20,6,20,0.00
2013-4-20,69,51,32,43,37,32,100,64,37,30.19,30.07,9,2,9,0.00
2013-4-21,68,56,42,46,40,36,95,59,37,30.25,30.10,15,3,15,0.00
2013-4-22,73,58,38,47,42,38,100,62,38,30.19,29.92,13,3,13,0.00
2013-4-23,70,57,44,55,48,35,100,71,50,30.04,29.86,16,4,16,0.00
2013-4-24,60,46,38,39,34,29,100,65,39,30.28,30.04,13,4,13,0.24
2013-4-25,69,51,31,41,36,31,100,64,34,30.34,30.19,12,2,12,0.00
2013-4-26,57,52,50,51,45,38,100,77,54,30.25,30.13,13,4,13,0.43
2013-4-27,59,54,51,57,53,49,100,96,87,30.13,29.92,15,4,15,0.43
2013-4-28,73,59,52,54,50,44,97,73,46,29.98,29.86,10,3,10,0.00
2013-4-29,84,65,48,61,55,48,100,72,41,29.92,29.78,15,2,15,0.00
2013-4-30,82,69,53,58,53,48,100,63,34,29.89,29.80,15,3,15,0.00